Flag for Germany Weather past 2 weeks in Erkelenz, North Rhine-Westphalia, Germany

Now
45 °F

Scattered clouds.


Feels Like: 37 °F
Forecast: 33 / 49 °F
Wind: 18 mph from Northwest

Location: Monchengladbach Airport

Current Time: Apr 2, 2015 at 11:50:50 AM

Latest Report: Apr 2, 2015 at 11:20 AM


Visibility: N/A

Pressure: 29.95 "Hg

Humidity: 71%

Dew point: 36 °F

Location of ErkelenzLocation

Historic Weather in Erkelenz — Graph

°F

Erkelenz temperature yesterday

Maximum temperature yesterday: 48 °F (at 2:20 PM)
Minimum temperature yesterday: 37 °F (at 9:20 AM)
Average temperature yesterday: 44 °F

Past Weeks' High & Low Weather Summary

 TemperatureHumidityPressure
High61 °F (Mar 18, 1:50 PM)100% (Mar 18, 9:20 AM)30.39 "Hg (Mar 18, 9:20 AM)
Low34 °F (Mar 23, 7:50 AM)40% (Mar 30, 6:50 PM)29.27 "Hg (Mar 29, 7:50 PM)
Average46 °F78%29.95 "Hg
* Reported Mar 18 9:20 AM — Apr 2 10:20 AM, Erkelenz, Weather by CustomWeather, © 2015

Note: Actual official high and low records may vary slightly from our data, if they occured in-between our weather recording intervals... More about our weather records

Advertising

Erkelenz weather history for previous 24 hours

 ConditionsComfort  
Time TempWeatherWind HumidityBarometerVisibility
10:20 AM
Thu, Apr 2
43 °FPartly sunny.17 mph81%29.92 "HgN/A
9:50 AM43 °FPartly sunny.15 mph87%29.89 "HgN/A
9:20 AM41 °FPartly sunny.17 mph93%29.86 "HgN/A
8:50 AM41 °FRain. Partly sunny.14 mph93%29.86 "Hg3 mi
8:20 AM41 °FLight rain. Broken clouds.15 mph93%29.83 "Hg4 mi
7:50 AM43 °FRain. Partly sunny.21 mph100%29.80 "Hg3 mi
7:50 PM
Wed, Apr 1
46 °FCool.14 mph53%30.07 "HgN/A
7:20 PM46 °FPassing clouds.15 mph53%30.07 "HgN/A
6:50 PM46 °FPassing clouds.15 mph53%30.07 "HgN/A
6:20 PM46 °FPassing clouds.16 mph57%30.07 "HgN/A
5:50 PM43 °FScattered showers. Passing clouds.14 mph76%30.09 "HgN/A
5:20 PM45 °FSprinkles. Passing clouds.22 mph66%30.07 "HgN/A
4:50 PM46 °FSprinkles. Passing clouds.18 mph62%30.07 "HgN/A
4:20 PM46 °FSprinkles. Passing clouds.23 mph53%30.07 "HgN/A
3:50 PM46 °FScattered showers. Passing clouds.24 mph50%30.07 "HgN/A
3:20 PM46 °FScattered showers. Passing clouds.21 mph57%30.07 "HgN/A
2:50 PM45 °FScattered showers. Passing clouds.21 mph66%30.07 "HgN/A
2:20 PM48 °FScattered showers. Passing clouds.23 mph58%30.07 "HgN/A
1:50 PM46 °FScattered showers. Passing clouds.23 mph57%30.07 "HgN/A
1:20 PM46 °FPassing clouds.17 mph66%30.07 "HgN/A
12:50 PM45 °FPassing clouds.13 mph76%30.07 "HgN/A
12:20 PM41 °FPassing clouds.15 mph87%30.07 "HgN/A
11:50 AM41 °FPassing clouds.14 mph87%30.07 "HgN/A
11:20 AM41 °FSprinkles. Scattered clouds.14 mph87%30.07 "HgN/A
Weather by CustomWeather, © 2015

See weather overviewHow to use our weather pages